When you browse on this site, cookies collect data to enhance your experience and personalize the content and advertising you see.
Visit our Privacy Policy to learn more. By continuing to use the site, you agree to this use of cookies and data.
  • In Sweden
  • List of Countries
  • For 7 days
  • Water Temperature
  • Weather Map
  • Weather Widgets
  • user-avatar
    Login

    Hourly Weather Pákozd

    Today, 28 February, Friday

    Time Temperature Precipitation Wind Pressure Humidity
    00:00 +2°C° 0.3 mm 7 mps 735 mmHg 70%
    01:00 +2°C° 0 mm 6 mps 735 mmHg 67%
    02:00 +2°C° 0.2 mm 6 mps 735 mmHg 73%
    03:00 +2°C° 0.2 mm 5 mps 735 mmHg 79%
    04:00 +2°C° 0.2 mm 5 mps 734 mmHg 86%
    05:00 +2°C° 0.3 mm 6 mps 735 mmHg 86%
    06:00 0°C° 0.3 mm 7 mps 736 mmHg 87%
    07:00 0°C° 0 mm 9 mps 737 mmHg 89%
    08:00 0°C° 0.1 mm 10 mps 738 mmHg 82%
    09:00 +1°C° 0.1 mm 11 mps 739 mmHg 75%
    10:00 0°C° 0.1 mm 12 mps 740 mmHg 69%
    11:00 +2°C° 0 mm 12 mps 741 mmHg 63%
    12:00 +3°C° 0 mm 12 mps 742 mmHg 58%
    13:00 +4°C° 0 mm 12 mps 743 mmHg 52%
    14:00 +4°C° 0 mm 11 mps 743 mmHg 52%
    15:00 +4°C° 0 mm 11 mps 744 mmHg 52%
    16:00 +5°C° 0 mm 10 mps 745 mmHg 52%
    17:00 +3°C° 0 mm 9 mps 746 mmHg 57%
    18:00 +2°C° 0 mm 8 mps 747 mmHg 62%
    19:00 +2°C° 0 mm 7 mps 748 mmHg 68%
    20:00 +2°C° 0 mm 6 mps 748 mmHg 69%
    21:00 +1°C° 0 mm 5 mps 749 mmHg 70%
    22:00 +1°C° 0 mm 5 mps 749 mmHg 71%
    23:00 0°C° 0 mm 4 mps 750 mmHg 73%

    Tomorrow, 29 February, Saturday

    Time Temperature Precipitation Wind Pressure Humidity
    00:00 +1°C° 0 mm 3 mps 750 mmHg 74%
    01:00 +1°C° 0 mm 3 mps 750 mmHg 76%
    02:00 +1°C° 0 mm 2 mps 750 mmHg 76%
    03:00 +1°C° 0 mm 2 mps 749 mmHg 76%
    04:00 +2°C° 0 mm 1 mps 749 mmHg 77%
    05:00 +1°C° 0 mm 2 mps 748 mmHg 77%
    06:00 +1°C° 0 mm 2 mps 748 mmHg 78%
    07:00 +1°C° 0 mm 2 mps 748 mmHg 78%
    08:00 0°C° 0 mm 4 mps 748 mmHg 70%
    09:00 +2°C° 0 mm 5 mps 747 mmHg 62%
    10:00 +4°C° 0 mm 6 mps 747 mmHg 53%
    11:00 +5°C° 0 mm 7 mps 746 mmHg 48%
    12:00 +6°C° 0 mm 7 mps 746 mmHg 43%
    13:00 +7°C° 0 mm 8 mps 745 mmHg 38%
    14:00 +8°C° 0 mm 7 mps 744 mmHg 40%
    15:00 +8°C° 0 mm 7 mps 744 mmHg 41%
    16:00 +8°C° 0 mm 6 mps 743 mmHg 43%
    17:00 +7°C° 0 mm 6 mps 743 mmHg 47%
    18:00 +5°C° 0 mm 6 mps 742 mmHg 50%
    19:00 +5°C° 0 mm 6 mps 742 mmHg 54%
    20:00 +4°C° 0 mm 6 mps 742 mmHg 57%
    21:00 +4°C° 0 mm 6 mps 741 mmHg 60%
    22:00 +4°C° 0 mm 6 mps 741 mmHg 63%
    23:00 +4°C° 0 mm 6 mps 741 mmHg 62%

    Day after tomorrow, 1 March, Sunday

    Time Temperature Precipitation Wind Pressure Humidity
    00:00 +5°C° 0 mm 7 mps 741 mmHg 61%
    01:00 +5°C° 0 mm 7 mps 741 mmHg 61%
    02:00 +5°C° 0 mm 7 mps 741 mmHg 63%
    03:00 +5°C° 0 mm 7 mps 741 mmHg 65%
    04:00 +5°C° 0 mm 7 mps 740 mmHg 67%
    05:00 +5°C° 0 mm 6 mps 741 mmHg 69%
    06:00 +6°C° 0 mm 5 mps 741 mmHg 70%
    07:00 +6°C° 0 mm 5 mps 741 mmHg 72%
    08:00 +7°C° 0 mm 5 mps 741 mmHg 71%
    09:00 +7°C° 0 mm 5 mps 741 mmHg 70%
    10:00 +8°C° 0 mm 5 mps 741 mmHg 68%
    11:00 +8°C° 0 mm 5 mps 741 mmHg 69%
    12:00 +8°C° 0 mm 5 mps 741 mmHg 70%
    13:00 +8°C° 0 mm 4 mps 741 mmHg 70%
    14:00 +7°C° 0.4 mm 4 mps 741 mmHg 75%
    15:00 +7°C° 0.4 mm 5 mps 740 mmHg 80%
    16:00 +6°C° 0.4 mm 5 mps 740 mmHg 85%
    17:00 +6°C° 0.5 mm 4 mps 739 mmHg 85%
    18:00 +6°C° 0.5 mm 4 mps 739 mmHg 85%
    19:00 +6°C° 0.5 mm 4 mps 739 mmHg 85%
    20:00 +7°C° 0.5 mm 4 mps 739 mmHg 86%
    21:00 +7°C° 0.5 mm 4 mps 738 mmHg 86%
    22:00 +7°C° 0.5 mm 4 mps 738 mmHg 86%
    23:00 +7°C° 0.2 mm 4 mps 737 mmHg 86%

    2 March, Monday

    Time Temperature Precipitation Wind Pressure Humidity
    00:00 +7°C° 0.2 mm 4 mps 737 mmHg 86%
    01:00 +7°C° 0.2 mm 4 mps 736 mmHg 85%
    02:00 +7°C° 0.3 mm 4 mps 736 mmHg 89%
    03:00 +7°C° 0.3 mm 4 mps 735 mmHg 92%
    04:00 +7°C° 0.3 mm 5 mps 734 mmHg 95%
    05:00 +7°C° 0.4 mm 5 mps 734 mmHg 94%
    06:00 +7°C° 0.4 mm 4 mps 734 mmHg 93%
    07:00 +7°C° 0.4 mm 4 mps 734 mmHg 92%
    08:00 +8°C° 0.1 mm 5 mps 734 mmHg 86%
    09:00 +9°C° 0.1 mm 6 mps 734 mmHg 80%
    10:00 +10°C° 0.1 mm 7 mps 734 mmHg 74%
    11:00 +9°C° 0.1 mm 6 mps 734 mmHg 76%
    12:00 +8°C° 0.1 mm 5 mps 734 mmHg 78%
    13:00 +7°C° 0.1 mm 4 mps 735 mmHg 80%
    14:00 +9°C° 0 mm 3 mps 735 mmHg 77%
    15:00 +9°C° 0 mm 3 mps 735 mmHg 74%
    16:00 +9°C° 0 mm 2 mps 735 mmHg 71%
    17:00 +9°C° 0 mm 2 mps 735 mmHg 75%
    18:00 +9°C° 0 mm 1 mps 735 mmHg 78%
    19:00 +8°C° 0 mm 1 mps 736 mmHg 82%
    20:00 +8°C° 0 mm 1 mps 736 mmHg 82%
    21:00 +7°C° 0 mm 2 mps 736 mmHg 82%
    22:00 +7°C° 0 mm 2 mps 736 mmHg 83%
    23:00 +7°C° 0 mm 2 mps 736 mmHg 84%

    3 March, Tuesday

    Time Temperature Precipitation Wind Pressure Humidity
    00:00 +7°C° 0 mm 3 mps 736 mmHg 85%
    01:00 +5°C° 0 mm 3 mps 735 mmHg 86%
    02:00 +7°C° 0.6 mm 3 mps 735 mmHg 88%
    03:00 +7°C° 0.6 mm 3 mps 735 mmHg 90%
    04:00 +7°C° 0.6 mm 3 mps 734 mmHg 92%
    05:00 +6°C° 1.3 mm 4 mps 734 mmHg 92%
    06:00 +6°C° 1.3 mm 4 mps 734 mmHg 92%
    07:00 +7°C° 1.3 mm 5 mps 734 mmHg 92%
    08:00 +7°C° 0.2 mm 4 mps 734 mmHg 89%
    09:00 +8°C° 0.2 mm 4 mps 734 mmHg 86%
    10:00 +10°C° 0.2 mm 4 mps 734 mmHg 84%
    11:00 +11°C° 0.1 mm 3 mps 734 mmHg 80%
    12:00 +11°C° 0.1 mm 3 mps 735 mmHg 76%
    13:00 +12°C° 0.1 mm 3 mps 735 mmHg 73%
    14:00 +11°C° 0.3 mm 4 mps 735 mmHg 76%
    15:00 +8°C° 0.3 mm 5 mps 735 mmHg 80%
    16:00 +7°C° 0.3 mm 6 mps 735 mmHg 84%
    17:00 +5°C° 0 mm 6 mps 736 mmHg 85%
    18:00 +5°C° 0 mm 6 mps 736 mmHg 86%
    19:00 +4°C° 0 mm 6 mps 737 mmHg 87%
    20:00 +4°C° 0.1 mm 7 mps 737 mmHg 87%
    21:00 +4°C° 0.1 mm 7 mps 737 mmHg 86%
    22:00 +4°C° 0.1 mm 8 mps 737 mmHg 86%
    23:00 +2°C° 0.5 mm 8 mps 737 mmHg 86%

    4 March, Wednesday

    Time Temperature Precipitation Wind Pressure Humidity
    00:00 +2°C° 0.5 mm 8 mps 737 mmHg 87%
    01:00 +2°C° 0.5 mm 8 mps 737 mmHg 87%
    02:00 +2°C° 1.1 mm 8 mps 736 mmHg 88%
    03:00 +2°C° 1.1 mm 8 mps 736 mmHg 88%
    04:00 +2°C° 1.1 mm 9 mps 736 mmHg 89%
    05:00 +2°C° 1.2 mm 9 mps 736 mmHg 89%
    06:00 +2°C° 1.2 mm 9 mps 736 mmHg 89%
    07:00 +2°C° 1.2 mm 9 mps 736 mmHg 89%
    08:00 +2°C° 0.2 mm 9 mps 736 mmHg 88%
    09:00 +2°C° 0.2 mm 9 mps 736 mmHg 88%
    10:00 +2°C° 0.2 mm 9 mps 736 mmHg 87%
    11:00 +2°C° 0.3 mm 9 mps 736 mmHg 87%
    12:00 +2°C° 0.3 mm 9 mps 736 mmHg 88%
    13:00 +1°C° 0.3 mm 9 mps 736 mmHg 89%
    14:00 +2°C° 0.2 mm 9 mps 736 mmHg 88%
    15:00 +2°C° 0.2 mm 8 mps 736 mmHg 87%
    16:00 +2°C° 0.2 mm 8 mps 736 mmHg 86%
    17:00 +2°C° 0 mm 8 mps 736 mmHg 85%
    18:00 +1°C° 0 mm 8 mps 736 mmHg 84%
    19:00 +2°C° 0 mm 7 mps 737 mmHg 83%
    20:00 +2°C° 0 mm 7 mps 737 mmHg 84%
    21:00 +2°C° 0 mm 6 mps 737 mmHg 84%
    22:00 +1°C° 0 mm 6 mps 737 mmHg 84%
    23:00 +1°C° 0 mm 6 mps 737 mmHg 85%
    Show more